Kimball, NE

11:16 PM MDT on April 28, 2017 (GMT -0600)
Kimball Municipal-Arraj

Weather History for KIBM - January, 2014

Change the Weather History Date:

Monday, January 13, 2014

  Actual Average (KSNY) Record (KSNY)
Temperature  
Mean Temperature 36 °F -  
Max Temperature 48 °F 40 °F 69 °F (1987)
Min Temperature 25 °F 10 °F -16 °F (1997)
Degree Days  
Heating Degree Days 28    
Moisture  
Dew Point 17 °F    
Average Humidity 44    
Maximum Humidity 64    
Minimum Humidity 27    
Precipitation  
Precipitation 0.00 in - - ()
Sea Level Pressure  
Sea Level Pressure 29.85 in    
Wind  
Wind Speed 26 mph (WNW)    
Max Wind Speed 48 mph    
Max Gust Speed 60 mph    
Visibility 9 miles    
Events      
Averages and records for this station are not official NWS values.
T = Trace of Precipitation, MM = Missing Value Source: NWS Daily Summary

Daily Weather History Graph

Daily Weather History Graph

Search for Another Location

Airport or City:

Trip Planner

Search our weather history database for the weather conditions in past years. The results will help you decide how hot, cold, wet, or windy it might be!

Date:

Astronomy

Jan. 13, 2014 Rise Set
Actual Time 8:18 AM CST 5:48 PM CST
Civil Twilight 7:48 AM CST 6:19 PM CST
Nautical Twilight 7:14 AM CST 6:53 PM CST
Astronomical Twilight 6:40 AM CST 7:26 PM CST
Moon 4:05 PM CST (1/13) 6:09 AM CST (1/13)
Length of Visible Light 10h 30m
Length of Day
9h 29m
Waxing Gibbous, 95% of the Moon is Illuminated
Jan 13
Waxing Gibbous
Jan 15
Full
Jan 23
Last Quarter
Jan 30
New
Feb 6
First Quarter

Hourly Weather History & Observations

Time (CST) Temp. Windchill Dew Point Humidity Pressure Visibility Wind Dir Wind Speed Gust Speed Precip Events Conditions
12:15 AM 27.7 °F 15.6 °F 15.3 °F 60% 29.87 in 10.0 mi WNW 16.1 mph - N/A   Clear
12:35 AM 28.2 °F 16.8 °F 14.2 °F 56% 29.87 in 10.0 mi WNW 15.0 mph 23.0 mph N/A   Clear
12:55 AM 29.1 °F 16.0 °F 13.6 °F 52% 29.87 in 10.0 mi WNW 20.7 mph 29.9 mph N/A   Clear
1:15 AM 28.4 °F 15.8 °F 13.6 °F 54% 29.87 in 10.0 mi WNW 18.4 mph 24.2 mph N/A   Clear
1:35 AM 29.1 °F 15.4 °F 13.6 °F 52% 29.87 in 10.0 mi WNW 23.0 mph 32.2 mph N/A   Clear
1:55 AM 28.9 °F 15.4 °F 13.6 °F 53% 29.87 in 10.0 mi WNW 21.9 mph 28.8 mph N/A   Clear
2:15 AM 28.8 °F 14.9 °F 13.6 °F 53% 29.87 in 10.0 mi WNW 23.0 mph - N/A   Clear
2:35 AM 28.4 °F 14.7 °F 13.6 °F 54% 29.87 in 10.0 mi West 21.9 mph - N/A   Clear
2:55 AM 27.5 °F 14.2 °F 13.8 °F 56% 29.87 in 10.0 mi West 19.6 mph - N/A   Clear
3:15 AM 26.8 °F 13.7 °F 13.8 °F 58% 29.88 in 10.0 mi WNW 18.4 mph - N/A   Clear
3:35 AM 27.7 °F 14.8 °F 14.0 °F 57% 29.88 in 10.0 mi WNW 18.4 mph - N/A   Clear
3:55 AM 29.7 °F 15.8 °F 13.8 °F 52% 29.87 in 10.0 mi WNW 24.2 mph 31.1 mph N/A   Clear
4:15 AM 28.8 °F 16.2 °F 14.0 °F 54% 29.87 in 10.0 mi West 18.4 mph - N/A   Clear
4:35 AM 26.8 °F 16.5 °F 14.0 °F 59% 29.87 in 10.0 mi West 11.5 mph - N/A   Clear
4:55 AM 25.2 °F 15.1 °F 14.4 °F 64% 29.87 in 10.0 mi West 10.4 mph - N/A   Clear
5:15 AM 26.6 °F 15.7 °F 14.4 °F 60% 29.86 in 10.0 mi West 12.7 mph - N/A   Clear
5:35 AM 27.3 °F 15.6 °F 14.7 °F 59% 29.86 in 10.0 mi West 15.0 mph - N/A   Clear
5:55 AM 28.2 °F 16.3 °F 14.9 °F 57% 29.85 in 10.0 mi West 16.1 mph - N/A   Clear
6:15 AM 29.3 °F 17.0 °F 14.9 °F 55% 29.85 in 10.0 mi West 18.4 mph 21.9 mph N/A   Clear
6:35 AM 30.2 °F 19.3 °F 15.3 °F 54% 29.84 in 10.0 mi West 15.0 mph - N/A   Scattered Clouds
6:55 AM 30.0 °F 18.3 °F 15.4 °F 55% 29.83 in 10.0 mi WNW 17.3 mph 21.9 mph N/A   Clear
7:15 AM 31.8 °F 19.6 °F 14.9 °F 50% 29.83 in 10.0 mi WNW 20.7 mph 25.3 mph N/A   Clear
7:35 AM 32.5 °F 19.1 °F 15.3 °F 49% 29.82 in 10.0 mi WNW 26.5 mph 32.2 mph N/A   Clear
7:55 AM 32.9 °F 19.6 °F 15.8 °F 49% 29.82 in 10.0 mi WNW 26.5 mph 33.4 mph N/A   Clear
8:15 AM 33.3 °F 20.3 °F 16.3 °F 50% 29.83 in 10.0 mi WNW 25.3 mph 34.5 mph N/A   Scattered Clouds
8:35 AM 33.4 °F 21.7 °F 16.5 °F 50% 29.83 in 10.0 mi WNW 20.7 mph 29.9 mph N/A   Overcast
8:55 AM 33.8 °F 20.5 °F 16.7 °F 50% 29.83 in 10.0 mi WNW 27.6 mph 33.4 mph N/A   Scattered Clouds
9:15 AM 34.5 °F 22.3 °F 16.9 °F 49% 29.84 in 10.0 mi WNW 24.2 mph 34.5 mph N/A   Clear
9:35 AM 35.8 °F 22.5 °F 17.2 °F 47% 29.84 in 10.0 mi WNW 31.1 mph 34.5 mph N/A   Scattered Clouds
9:55 AM 37.6 °F 24.8 °F 17.2 °F 44% 29.86 in 10.0 mi WNW 32.2 mph 39.1 mph N/A   Overcast
10:15 AM 38.3 °F 26.2 °F 16.7 °F 42% 29.86 in 10.0 mi WNW 29.9 mph 38.0 mph N/A   Overcast
10:35 AM 39.9 °F 27.6 °F 16.3 °F 38% 29.86 in 10.0 mi WNW 34.5 mph 42.6 mph N/A   Overcast
10:55 AM 40.8 °F 29.0 °F 16.5 °F 37% 29.86 in 10.0 mi WNW 33.4 mph 42.6 mph N/A   Overcast
11:15 AM 41.9 °F 30.4 °F 16.5 °F 36% 29.86 in 5.0 mi WNW 34.5 mph 52.9 mph N/A   Haze
11:35 AM 42.6 °F 31.9 °F 16.0 °F 34% 29.85 in 7.0 mi WNW 31.1 mph 50.6 mph N/A   Overcast
11:55 AM 43.2 °F 31.5 °F 15.8 °F 33% 29.85 in 5.0 mi WNW 39.1 mph 47.2 mph N/A   Haze
12:15 PM 43.9 °F 32.1 °F 15.6 °F 32% 29.83 in 7.0 mi WNW 42.6 mph 48.3 mph N/A   Overcast
12:35 PM 46.0 °F 35.3 °F 15.8 °F 30% 29.82 in 7.0 mi WNW 40.3 mph 48.3 mph N/A   Overcast
12:55 PM 46.8 °F - 15.6 °F 29% 29.82 in 4.0 mi WNW 43.7 mph 52.9 mph N/A   Haze
1:15 PM 46.0 °F 35.1 °F 15.3 °F 29% 29.81 in 4.0 mi WNW 42.6 mph 52.9 mph N/A   Haze
1:35 PM 45.7 °F 34.7 °F 15.4 °F 30% 29.81 in 3.0 mi WNW 41.4 mph 49.5 mph N/A   Haze
1:55 PM 46.9 °F - 15.4 °F 28% 29.81 in 4.0 mi WNW 36.8 mph 46.0 mph N/A   Haze
2:15 PM 47.5 °F - 15.6 °F 28% 29.80 in 5.0 mi WNW 39.1 mph 51.8 mph N/A   Haze
2:35 PM 48.2 °F - 15.8 °F 27% 29.80 in 5.0 mi WNW 44.9 mph 57.5 mph N/A   Haze
2:55 PM 47.5 °F - 16.0 °F 28% 29.80 in 5.0 mi WNW 47.2 mph 56.4 mph N/A   Haze
3:15 PM 47.8 °F - 16.3 °F 28% 29.80 in 7.0 mi WNW 43.7 mph 50.6 mph N/A   Mostly Cloudy
3:35 PM 47.1 °F - 16.9 °F 30% 29.79 in 4.0 mi WNW 46.0 mph 58.7 mph N/A   Haze
3:55 PM 46.6 °F - 17.2 °F 31% 29.79 in 4.0 mi WNW 48.3 mph 59.8 mph N/A   Haze
4:15 PM 45.5 °F 33.8 °F 17.6 °F 33% 29.80 in 4.0 mi WNW 47.2 mph 57.5 mph N/A   Haze
4:35 PM 44.8 °F 33.1 °F 18.5 °F 35% 29.80 in 4.0 mi WNW 44.9 mph 54.1 mph N/A   Haze
4:55 PM 43.7 °F 31.9 °F 19.2 °F 38% 29.80 in 7.0 mi WNW 41.4 mph 52.9 mph N/A   Scattered Clouds
5:15 PM 43.9 °F 32.6 °F 19.4 °F 38% 29.81 in 10.0 mi WNW 38.0 mph 51.8 mph N/A   Clear
5:35 PM 43.7 °F 31.5 °F 19.4 °F 38% 29.81 in 10.0 mi WNW 44.9 mph 52.9 mph N/A   Clear
5:55 PM 42.8 °F 30.3 °F 19.4 °F 39% 29.81 in 7.0 mi WNW 44.9 mph 57.5 mph N/A   Clear
6:15 PM 42.8 °F 30.8 °F 19.8 °F 40% 29.81 in 10.0 mi WNW 40.3 mph 52.9 mph N/A   Clear
6:35 PM 42.1 °F 30.6 °F 19.9 °F 41% 29.82 in 10.0 mi WNW 34.5 mph 49.5 mph N/A   Clear
6:55 PM 41.9 °F 30.0 °F 20.1 °F 42% 29.82 in 10.0 mi WNW 36.8 mph 48.3 mph N/A   Clear
7:15 PM 41.9 °F 29.3 °F 19.9 °F 42% 29.82 in 10.0 mi WNW 42.6 mph 49.5 mph N/A   Clear
7:35 PM 41.5 °F 29.2 °F 19.9 °F 42% 29.83 in 10.0 mi WNW 39.1 mph 48.3 mph N/A   Clear
7:55 PM 41.9 °F 30.0 °F 19.8 °F 41% 29.83 in 10.0 mi WNW 36.8 mph 48.3 mph N/A   Clear
8:15 PM 41.9 °F 30.2 °F 19.4 °F 41% 29.84 in 10.0 mi WNW 35.7 mph 48.3 mph N/A   Clear
8:35 PM 41.5 °F 30.2 °F 19.6 °F 41% 29.84 in 10.0 mi West 32.2 mph 48.3 mph N/A   Clear
8:55 PM 41.2 °F 29.9 °F 19.8 °F 42% 29.86 in 10.0 mi West 31.1 mph 42.6 mph N/A   Clear
9:15 PM 41.4 °F 29.8 °F 19.9 °F 42% 29.86 in 10.0 mi WNW 33.4 mph 46.0 mph N/A   Scattered Clouds
9:35 PM 41.7 °F 29.9 °F 20.1 °F 42% 29.87 in 10.0 mi WNW 35.7 mph 47.2 mph N/A   Scattered Clouds
9:55 PM 41.9 °F 29.9 °F 19.9 °F 42% 29.87 in 10.0 mi WNW 38.0 mph 48.3 mph N/A   Mostly Cloudy
10:15 PM 41.9 °F 30.4 °F 20.3 °F 42% 29.90 in 10.0 mi WNW 34.5 mph 40.3 mph N/A   Overcast
10:35 PM 42.1 °F 32.1 °F 20.1 °F 42% 29.91 in 10.0 mi WNW 25.3 mph 33.4 mph N/A   Overcast
10:55 PM 41.9 °F 32.1 °F 20.8 °F 43% 29.92 in 10.0 mi NW 24.2 mph 36.8 mph N/A   Overcast
11:15 PM 41.0 °F 31.9 °F 20.3 °F 44% 29.92 in 10.0 mi NW 19.6 mph 24.2 mph N/A   Overcast
11:35 PM 40.5 °F 32.1 °F 20.3 °F 45% 29.92 in 10.0 mi NW 16.1 mph 26.5 mph N/A   Mostly Cloudy
11:55 PM 39.9 °F 30.2 °F 20.3 °F 45% 29.92 in 10.0 mi WNW 20.7 mph 28.8 mph N/A   Clear